Regional Weather Roundup
Issued by NWS

Home | Current Version | Previous Version | Text Only | Print | Product List | Glossary Off
Versions: 1 2 3 4 5 6 7 8 9 10 11 12 13 14 15 16 17 18 19 20 21 22 23 24 25 26 27 28 29 30 31 32 33 34 35 36 37 38 39 40 41 42 43 44 45 46 47 48 49 50

000
ASUS43 KDTX 200001
RWRMI
MICHIGAN HOURLY REGIONAL WEATHER ROUNDUP
NATIONAL WEATHER SERVICE DETROIT/PONTIAC MI
800 PM EDT FRI SEP 19 2014

NOTE: "FAIR" INDICATES FEW OR NO CLOUDS BELOW 12,000 FEET WITH NO
SIGNIFICANT WEATHER AND/OR OBSTRUCTION TO VISIBILITY.

MIZ047>049-052>055-059>063-066>070-074>076-081>083-200100-
SOUTHEAST LOWER MICHIGAN

CITY           SKY/WX    TMP DP  RH WIND       PRES   REMARKS
ADRIAN         PTCLDY    59  51  75 SE8       30.10S
6HR MIN TEMP:  59; 6HR MAX TEMP:  69;

ALMA           PTCLDY    60  50  69 S5        30.03F
ANN ARBOR      CLEAR     56  46  69 SE6       30.09F
BAD AXE        MOCLDY    56  47  70 S10       30.06F
6HR MIN TEMP:  56; 6HR MAX TEMP:  65;

CARO           MOCLDY    55  45  67 SE5       30.05S
DETROIT CITY   PTCLDY    62  50  64 S6        30.10F
6HR MIN TEMP:  62; 6HR MAX TEMP:  67;

DETROIT        MOCLDY    59  51  75 SE5       30.10F
6HR MIN TEMP:  59; 6HR MAX TEMP:  66;

FLINT          PTCLDY    59  42  53 S7        30.07F
6HR MIN TEMP:  57; 6HR MAX TEMP:  69;

GROSSE ILE     CLEAR     61  54  77 CALM      30.08F
HILLSDALE      CLEAR     60  47  63 CALM      30.08F
6HR MIN TEMP:  60; 6HR MAX TEMP:  70;

HOWELL         PTCLDY    58  48  70 S7        30.07S

CITY           SKY/WX    TMP DP  RH WIND       PRES   REMARKS
JACKSON        CLEAR     60  48  64 S6        30.07F
6HR MIN TEMP:  60; 6HR MAX TEMP:  69;

LAMBERTVILLE   CLEAR     59  54  82 CALM      30.10F
LANSING        PTCLDY    62  49  62 S9        30.05F
6HR MIN TEMP:  62; 6HR MAX TEMP:  69;

LAPEER         FAIR      56  47  70 S6        30.06F
MASON          PTCLDY    56  49  78 SE5       30.06F
MONROE         CLEAR     57  52  82 E3        30.08F
MT. CLEMENS    MOCLDY    57  54  92 S8        30.08F
6HR MIN TEMP:  56; 6HR MAX TEMP:  64;

PONTIAC        MOCLDY    57  39  51 S7        30.08F
6HR MIN TEMP:  57; 6HR MAX TEMP:  66;

PORT HOPE        N/A     59  45  59 S6        30.03F
6HR MIN TEMP:  59; 6HR MAX TEMP:  66;

PORT HURON     PTCLDY    54  48  82 S5        30.10R
TRI CITIES     MOCLDY    61  49  64 S9        30.04F
6HR MIN TEMP:  61; 6HR MAX TEMP:  68;

TROY           PTCLDY    61  44  52 S6        30.11S
SAGINAW HB     MOCLDY    57  45  62 S8        30.03F
$$
MIZ043>046-050>051-056>058-064>065-071>073-077>080-200100-
SOUTHWEST LOWER MICHIGAN

CITY           SKY/WX    TMP DP  RH WIND       PRES   REMARKS
BATTLE CREEK   CLEAR     62  48  60 S7        30.06F
6HR MIN TEMP:  62; 6HR MAX TEMP:  70;

BENTON HARBOR  CLEAR     63  48  58 S5        30.02F
6HR MIN TEMP:  63; 6HR MAX TEMP:  71;

BIG RAPIDS     CLEAR     61  54  77 S5        29.99F
6HR MIN TEMP:  61; 6HR MAX TEMP:  68;

COLDWATER      CLEAR     62  50  65 CALM      30.07S
6HR MIN TEMP:  62; 6HR MAX TEMP:  70;

FREMONT        FAIR      62  50  65 S5        30.00F
HOLLAND        CLEAR     63  52  67 S6        30.03F
6HR MIN TEMP:  63; 6HR MAX TEMP:  72;

GRAND RAPIDS   MOCLDY    63  52  67 S6        30.04S
6HR MIN TEMP:  63; 6HR MAX TEMP:  71;

IONIA          FAIR      64  50  61 S5        30.03F
KALAMAZOO      CLEAR     64  49  57 S8        30.05F
6HR MIN TEMP:  64; 6HR MAX TEMP:  71;

LUDINGTON      PTCLDY    64  52  65 S15G21    29.95F
6HR MIN TEMP:  63; 6HR MAX TEMP:  69;

MARSHALL       CLEAR     60  47  62 S9        30.06F
MOUNT PLEASANT PTCLDY    61  51  67 S3        30.01F
6HR MIN TEMP:  61; 6HR MAX TEMP:  69;

MUSKEGON       MOCLDY    64  54  69 S7        30.00F
6HR MIN TEMP:  64; 6HR MAX TEMP:  71;

SOUTH HAVEN    CLEAR     64  51  64 S3        30.02F
$$
MIZ016>042-200100-
NORTHERN LOWER MICHIGAN

CITY           SKY/WX    TMP DP  RH WIND       PRES   REMARKS
ALPENA         MOCLDY    57  50  77 S9        29.97F
6HR MIN TEMP:  57; 6HR MAX TEMP:  64;

BEAVER ISLAND  PTCLDY    64  55  72 S13G18    29.86F
6HR MIN TEMP:  64; 6HR MAX TEMP:  69;

BELLAIRE       PTCLDY    64  52  63 S10       29.93S
6HR MIN TEMP:  64; 6HR MAX TEMP:  71;

CADILLAC       PTCLDY    61  52  72 S13G18    29.95F
CHARLEVOIX     MOCLDY    65  52  64 S8G17     29.93F
6HR MIN TEMP:  65; 6HR MAX TEMP:  70;

FRANKFORT      PTCLDY    66  49  55 S14G21    29.91F
GAYLORD        PTCLDY    59  50  72 S13       29.96S
6HR MIN TEMP:  59; 6HR MAX TEMP:  64;

GRAYLING       PTCLDY    60  51  71 S6        29.97F
6HR MIN TEMP:  60; 6HR MAX TEMP:  68;

HARBOR SPRINGS MOCLDY    64  52  63 S7        29.92S
HOUGHTON LAKE  PTCLDY    58  52  80 S8        29.98F
6HR MIN TEMP:  58; 6HR MAX TEMP:  65;

MANISTEE       PTCLDY    64  48  55 S13G18    29.95S
OSCODA         PTCLDY    57  51  80 S6        30.01S
PELLSTON       MOCLDY    64  51  62 S10G17    29.91F
6HR MIN TEMP:  64; 6HR MAX TEMP:  70;

ROGERS CITY    MOCLDY    60  52  75 S8        29.96F
TRAVERSE CITY  MOCLDY    65  52  62 VRB7      29.91S
6HR MIN TEMP:  65; 6HR MAX TEMP:  71;

$$
MIZ007>008-015-200100-
EASTERN UPPER MICHIGAN

CITY           SKY/WX    TMP DP  RH WIND       PRES   REMARKS
KINROSS        CLOUDY    63  52  67 S13       29.87F
6HR MIN TEMP:  57; 6HR MAX TEMP:  64;

MACKINAC ISLAN CLOUDY    63  51  65 S10G18    29.89F
6HR MIN TEMP:  62; 6HR MAX TEMP:  67;

NEWBERRY       PTCLDY    61  51  69 S24G38    29.82F
S. S. MARIE    CLOUDY    59  51  75 SE9       29.86F
6HR MIN TEMP:  55; 6HR MAX TEMP:  61; 6HR PCP: TRACE;

$$
MIZ004>006-011>014-085-200100-
CENTRAL UPPER MICHIGAN

CITY           SKY/WX    TMP DP  RH WIND       PRES   REMARKS
MANISTIQUE     MOCLDY    61  53  75 S21G29    29.82F
ESCANABA       MOCLDY    61  52  72 S15G23    29.79F
6HR MIN TEMP:  61; 6HR MAX TEMP:  64;

MENOMINEE      MOCLDY    64  52  63 S13G25    29.79F
6HR MIN TEMP:  63; 6HR MAX TEMP:  72;

SAWYER-GWINN   MOCLDY    61  54  77 S14G21    29.75R
$$
MIZ001>003-009>011-084-200100-
WESTERN UPPER MICHIGAN

CITY           SKY/WX    TMP DP  RH WIND       PRES   REMARKS
IRON MOUNTAIN  CLOUDY    66  51  58 S8G20     29.77R
6HR MIN TEMP:  61; 6HR MAX TEMP:  69;

HOUGHTON       LGT RAIN  61  54  77 SW6       29.66S
6HR MIN TEMP:  60; 6HR MAX TEMP:  65; 6HR PCP:  0.11;

COPPER HARBOR    N/A     58  56  93 CALM      29.66S
6HR MIN TEMP:  58; 6HR MAX TEMP:  64; 6HR PCP:  0.16;

IRONWOOD       CLOUDY    66  55  68 S21G29    29.63F
6HR MIN TEMP:  63; 6HR MAX TEMP:  66;

$$

ABBREVIATIONS USED IN REMARKS
   TC - TEMPERATURE IN CELSIUS
  WCI - WIND CHILL INDEX
   HX - HEAT INDEX
  VSB - VISIBILITY




USA.gov is the U.S. government's official web portal to all federal, state and local government web resources and services.